Butterfly — C6UP2 — position and weather

sailwx.info

Track history (hours):
 
Tides and Currents Weather Stations Pressure Air Temp Water Temp Dewpoint Dewpoint Depression Visibility Wind Speed Wind Dir Waves Ship Positions

Butterfly

Last reported at 2014-Dec-22 04:08 UTC. Time now 2014-Dec-22 14:14 UTC.
Position N 27°15' W 079°20'.

Length 182 m; draft 8 m.

Type: Tanker. MMSI: 311985000.

Date/timePositionNaut miles runAvg speedWind from/ knotsBaromVisibWave heightAir tempDewpointWater temp
2014-Dec-22 04:08N 27°15' W 079°20'811.6
2014-Dec-22 03:25N 27°23' W 079°18'1112.2
2014-Dec-22 02:33N 27°32' W 079°11'  
2014-Dec-19 14:30N 39°28' W 073°53'1313.6
2014-Dec-19 13:33N 39°41' W 073°52'1313.5
2014-Dec-19 12:34N 39°54' W 073°51'1413.5
2014-Dec-19 11:33N 40°08' W 073°50'9 9.5
2014-Dec-19 10:33N 40°17' W 073°49'10 8.6
2014-Dec-19 09:26N 40°27' W 073°49'8 9.0
2014-Dec-19 08:33N 40°31' W 073°58'9 8.9
2014-Dec-19 07:33N 40°38' W 074°04'0 0.1
2014-Dec-19 06:32N 40°38' W 074°04'0 0.0
2014-Dec-19 05:32N 40°38' W 074°04'0 0.0
2014-Dec-19 04:29N 40°38' W 074°04'0 0.0
2014-Dec-19 03:32N 40°38' W 074°04'0 0.0
2014-Dec-19 02:29N 40°38' W 074°04'0 0.0
2014-Dec-19 01:29N 40°38' W 074°04'0 0.0
2014-Dec-19 00:32N 40°38' W 074°04'2 2.3
2014-Dec-18 23:31N 40°39' W 074°07'0 0.0
2014-Dec-18 22:31N 40°39' W 074°07'0 0.0
2014-Dec-18 21:31N 40°39' W 074°07'0 0.0
2014-Dec-18 20:31N 40°39' W 074°07'0 0.0
2014-Dec-18 19:31N 40°39' W 074°07'0 0.0
2014-Dec-18 18:31N 40°39' W 074°07'0 0.0
2014-Dec-18 17:31N 40°39' W 074°07'0 0.0
2014-Dec-18 16:31N 40°39' W 074°07'0 0.0
2014-Dec-18 15:31N 40°39' W 074°07'0 0.0
2014-Dec-18 14:28N 40°39' W 074°07'0 0.0
2014-Dec-18 13:31N 40°39' W 074°07'0 0.0
2014-Dec-18 12:31N 40°39' W 074°07'0 0.0
2014-Dec-18 11:31N 40°39' W 074°07'0 0.0
2014-Dec-18 10:31N 40°39' W 074°07'0 0.0
2014-Dec-18 09:31N 40°39' W 074°07'0 0.0
2014-Dec-18 08:31N 40°39' W 074°07'0 0.0
2014-Dec-18 07:31N 40°39' W 074°07'0 0.0
2014-Dec-18 06:31N 40°39' W 074°07'0 0.0
2014-Dec-18 05:31N 40°39' W 074°07'0 0.0
2014-Dec-18 04:31N 40°39' W 074°07'0 0.0
2014-Dec-18 03:31N 40°39' W 074°07'0 0.0
2014-Dec-18 02:28N 40°39' W 074°07'0 0.0
2014-Dec-18 01:31N 40°39' W 074°07'0 0.0
2014-Dec-18 00:31N 40°39' W 074°07'0 0.0
2014-Dec-17 23:31N 40°39' W 074°07'0 0.0
2014-Dec-17 22:31N 40°39' W 074°07'0 0.0
2014-Dec-17 21:31N 40°39' W 074°07'0 0.0
2014-Dec-17 20:31N 40°39' W 074°07'0 0.0
2014-Dec-17 19:31N 40°39' W 074°07'0 0.0
2014-Dec-17 18:31N 40°39' W 074°07'0 0.0
2014-Dec-17 17:31N 40°39' W 074°07'0 0.0
2014-Dec-17 16:31N 40°39' W 074°07'0 0.0
2014-Dec-17 15:31N 40°39' W 074°07'0 0.0
2014-Dec-17 14:31N 40°39' W 074°07'0 0.0
2014-Dec-17 13:31N 40°39' W 074°07'0 0.0
2014-Dec-17 12:31N 40°39' W 074°07'0 0.0
2014-Dec-17 11:31N 40°39' W 074°07'0 0.0
2014-Dec-17 10:31N 40°39' W 074°07'1 0.9
2014-Dec-17 09:33N 40°39' W 074°06'0 0.1
2014-Dec-17 08:28N 40°39' W 074°05'0 0.0
2014-Dec-17 07:31N 40°39' W 074°05'0 0.0
2014-Dec-17 06:31N 40°39' W 074°05'0 0.0
2014-Dec-17 05:31N 40°39' W 074°05'0 0.0
2014-Dec-17 04:31N 40°39' W 074°05'0 0.0
2014-Dec-17 03:31N 40°39' W 074°05'0 0.0
2014-Dec-17 02:31N 40°39' W 074°05'0 0.0
2014-Dec-17 01:31N 40°39' W 074°05'0 0.0
2014-Dec-17 00:31N 40°39' W 074°05'0 0.0
2014-Dec-16 23:31N 40°39' W 074°05'0 0.0
2014-Dec-16 22:31N 40°39' W 074°05'0 0.0
2014-Dec-16 21:28N 40°39' W 074°05'0 0.0
2014-Dec-16 20:31N 40°39' W 074°05'0 0.0
2014-Dec-16 19:28N 40°39' W 074°05'0 0.0
2014-Dec-16 18:31N 40°39' W 074°05'0 0.0
2014-Dec-16 17:31N 40°39' W 074°05'0 0.0
2014-Dec-16 16:31N 40°39' W 074°05'0 0.0
2014-Dec-16 15:31N 40°39' W 074°05'0 0.0
2014-Dec-16 14:31N 40°39' W 074°05'0 0.0
2014-Dec-16 13:31N 40°39' W 074°05'0 0.0
2014-Dec-16 12:28N 40°39' W 074°05'0 0.0
2014-Dec-16 11:31N 40°39' W 074°05'0 0.0
2014-Dec-16 10:31N 40°39' W 074°05'0 0.0
2014-Dec-16 09:31N 40°39' W 074°05'0 0.0
2014-Dec-16 08:31N 40°39' W 074°05'0 0.0
2014-Dec-16 07:31N 40°39' W 074°05'0 0.0
2014-Dec-16 06:31N 40°39' W 074°05'0 0.0
2014-Dec-16 05:31N 40°39' W 074°05'0 0.0
2014-Dec-16 04:23N 40°39' W 074°05'0 0.0
2014-Dec-16 03:31N 40°39' W 074°05'0 0.2
2014-Dec-16 02:28N 40°39' W 074°05'2 1.3
2014-Dec-16 01:09N 40°38' W 074°04'0 0.0
2014-Dec-16 00:06N 40°38' W 074°04'0 0.0
2014-Dec-15 23:33N 40°38' W 074°04'0 0.0
2014-Dec-15 22:33N 40°38' W 074°04'0 0.2
2014-Dec-15 21:33N 40°38' W 074°04'0 0.0
2014-Dec-15 20:33N 40°38' W 074°04'0 0.0
2014-Dec-15 19:33N 40°38' W 074°04'0 0.0
2014-Dec-15 18:33N 40°38' W 074°04'0 0.0
2014-Dec-15 17:33N 40°38' W 074°04'0 0.2
2014-Dec-15 16:33N 40°38' W 074°04'0 0.1
2014-Dec-15 15:33N 40°38' W 074°04'0 0.0
2014-Dec-15 14:33N 40°38' W 074°04'0 0.0
2014-Dec-15 13:33N 40°38' W 074°04'0 0.0
2014-Dec-15 12:33N 40°38' W 074°04'0 0.0
2014-Dec-15 11:33N 40°38' W 074°04'0 0.0
2014-Dec-15 10:33N 40°38' W 074°04'0 0.2
2014-Dec-15 09:33N 40°38' W 074°04'0 0.0
2014-Dec-15 08:33N 40°38' W 074°04'0 0.0
2014-Dec-15 07:33N 40°38' W 074°04'0 0.0
2014-Dec-15 06:33N 40°38' W 074°04'0 0.0
2014-Dec-15 05:33N 40°38' W 074°04'0 0.2
2014-Dec-15 04:33N 40°38' W 074°04'0 0.1
2014-Dec-15 03:33N 40°38' W 074°04'0 0.0
2014-Dec-15 02:33N 40°38' W 074°04'0 0.0
2014-Dec-15 01:33N 40°38' W 074°04'0 0.0
2014-Dec-15 00:33N 40°38' W 074°04'0 0.0
2014-Dec-14 23:33N 40°38' W 074°04'0 0.0
2014-Dec-14 22:33N 40°38' W 074°04'0 0.0
2014-Dec-14 21:30N 40°38' W 074°04'0 0.1
2014-Dec-14 20:33N 40°38' W 074°04'0 0.2
2014-Dec-14 19:33N 40°38' W 074°04'0 0.0
2014-Dec-14 18:33N 40°38' W 074°04'0 0.1
2014-Dec-14 17:30N 40°38' W 074°04'0 0.0
2014-Dec-14 16:33N 40°38' W 074°04'0 0.1
2014-Dec-14 15:33N 40°38' W 074°04'0 0.1
2014-Dec-14 14:33N 40°38' W 074°04'0 0.0
2014-Dec-14 13:33N 40°38' W 074°04'0 0.0
2014-Dec-14 12:33N 40°38' W 074°04'0 0.0
2014-Dec-14 11:30N 40°38' W 074°04'0 0.0
2014-Dec-14 10:30N 40°38' W 074°04'0 0.0
2014-Dec-14 09:33N 40°38' W 074°04'0 0.2
2014-Dec-14 08:33N 40°38' W 074°04'0 0.0
2014-Dec-14 07:33N 40°38' W 074°04'0 0.0
2014-Dec-14 06:33N 40°38' W 074°04'0 0.0
2014-Dec-14 05:33N 40°38' W 074°04'0 0.1
2014-Dec-14 04:33N 40°38' W 074°04'0 0.1
2014-Dec-14 03:33N 40°38' W 074°04'0 0.0
2014-Dec-14 02:33N 40°38' W 074°04'0 0.0
2014-Dec-14 01:30N 40°38' W 074°04'0 0.0
2014-Dec-14 00:33N 40°38' W 074°04'0 0.1
2014-Dec-13 23:33N 40°38' W 074°04'0 0.0
2014-Dec-13 22:33N 40°38' W 074°04'0 0.0
2014-Dec-13 21:30N 40°38' W 074°04'0 0.0
2014-Dec-13 20:33N 40°38' W 074°04'0 0.2
2014-Dec-13 19:33N 40°38' W 074°04'0 0.2
2014-Dec-13 18:33N 40°38' W 074°04'2 2.3
2014-Dec-13 17:33N 40°36' W 074°02'1010.3
2014-Dec-13 16:33N 40°29' W 073°53'4610.6
2014-Dec-13 12:14N 40°30' W 072°53'812.3
2014-Dec-13 11:33N 40°31' W 072°42'5 4.8
2014-Dec-13 10:33N 40°31' W 072°36'1313.0
2014-Dec-13 09:33N 40°31' W 072°18'1313.1
2014-Dec-13 08:33N 40°31' W 072°01'1313.0
2014-Dec-13 07:33N 40°32' W 071°44'1313.0
2014-Dec-13 06:33N 40°32' W 071°27'1313.0
2014-Dec-13 05:33N 40°32' W 071°10'3213.3
2014-Dec-13 03:09N 40°33' W 070°28'  
Track history (hours):
 
Tides and Currents Weather Stations Pressure Air Temp Water Temp Dewpoint Dewpoint Depression Visibility Wind Speed Wind Dir Waves Ship Positions

Butterfly

Last reported at 2014-Dec-22 04:08 UTC. Time now 2014-Dec-22 14:14 UTC.
Position N 27°15' W 079°20'.

Length 182 m; draft 8 m.

Type: Tanker. MMSI: 311985000.

Date/timePositionNaut miles runAvg speedWind from/ knotsBaromVisibWave heightAir tempDewpointWater temp
2014-Dec-22 04:08N 27°15' W 079°20'811.6
2014-Dec-22 03:25N 27°23' W 079°18'1112.2
2014-Dec-22 02:33N 27°32' W 079°11'  
2014-Dec-19 14:30N 39°28' W 073°53'1313.6
2014-Dec-19 13:33N 39°41' W 073°52'1313.5
2014-Dec-19 12:34N 39°54' W 073°51'1413.5
2014-Dec-19 11:33N 40°08' W 073°50'9 9.5
2014-Dec-19 10:33N 40°17' W 073°49'10 8.6
2014-Dec-19 09:26N 40°27' W 073°49'8 9.0
2014-Dec-19 08:33N 40°31' W 073°58'9 8.9
2014-Dec-19 07:33N 40°38' W 074°04'0 0.1
2014-Dec-19 06:32N 40°38' W 074°04'0 0.0
2014-Dec-19 05:32N 40°38' W 074°04'0 0.0
2014-Dec-19 04:29N 40°38' W 074°04'0 0.0
2014-Dec-19 03:32N 40°38' W 074°04'0 0.0
2014-Dec-19 02:29N 40°38' W 074°04'0 0.0
2014-Dec-19 01:29N 40°38' W 074°04'0 0.0
2014-Dec-19 00:32N 40°38' W 074°04'2 2.3
2014-Dec-18 23:31N 40°39' W 074°07'0 0.0
2014-Dec-18 22:31N 40°39' W 074°07'0 0.0
2014-Dec-18 21:31N 40°39' W 074°07'0 0.0
2014-Dec-18 20:31N 40°39' W 074°07'0 0.0
2014-Dec-18 19:31N 40°39' W 074°07'0 0.0
2014-Dec-18 18:31N 40°39' W 074°07'0 0.0
2014-Dec-18 17:31N 40°39' W 074°07'0 0.0
2014-Dec-18 16:31N 40°39' W 074°07'0 0.0
2014-Dec-18 15:31N 40°39' W 074°07'0 0.0
2014-Dec-18 14:28N 40°39' W 074°07'0 0.0
2014-Dec-18 13:31N 40°39' W 074°07'0 0.0
2014-Dec-18 12:31N 40°39' W 074°07'0 0.0
2014-Dec-18 11:31N 40°39' W 074°07'0 0.0
2014-Dec-18 10:31N 40°39' W 074°07'0 0.0
2014-Dec-18 09:31N 40°39' W 074°07'0 0.0
2014-Dec-18 08:31N 40°39' W 074°07'0 0.0
2014-Dec-18 07:31N 40°39' W 074°07'0 0.0
2014-Dec-18 06:31N 40°39' W 074°07'0 0.0
2014-Dec-18 05:31N 40°39' W 074°07'0 0.0
2014-Dec-18 04:31N 40°39' W 074°07'0 0.0
2014-Dec-18 03:31N 40°39' W 074°07'0 0.0
2014-Dec-18 02:28N 40°39' W 074°07'0 0.0
2014-Dec-18 01:31N 40°39' W 074°07'0 0.0
2014-Dec-18 00:31N 40°39' W 074°07'0 0.0
2014-Dec-17 23:31N 40°39' W 074°07'0 0.0
2014-Dec-17 22:31N 40°39' W 074°07'0 0.0
2014-Dec-17 21:31N 40°39' W 074°07'0 0.0
2014-Dec-17 20:31N 40°39' W 074°07'0 0.0
2014-Dec-17 19:31N 40°39' W 074°07'0 0.0
2014-Dec-17 18:31N 40°39' W 074°07'0 0.0
2014-Dec-17 17:31N 40°39' W 074°07'0 0.0
2014-Dec-17 16:31N 40°39' W 074°07'0 0.0
2014-Dec-17 15:31N 40°39' W 074°07'0 0.0
2014-Dec-17 14:31N 40°39' W 074°07'0 0.0
2014-Dec-17 13:31N 40°39' W 074°07'0 0.0
2014-Dec-17 12:31N 40°39' W 074°07'0 0.0
2014-Dec-17 11:31N 40°39' W 074°07'0 0.0
2014-Dec-17 10:31N 40°39' W 074°07'1 0.9
2014-Dec-17 09:33N 40°39' W 074°06'0 0.1
2014-Dec-17 08:28N 40°39' W 074°05'0 0.0
2014-Dec-17 07:31N 40°39' W 074°05'0 0.0
2014-Dec-17 06:31N 40°39' W 074°05'0 0.0
2014-Dec-17 05:31N 40°39' W 074°05'0 0.0
2014-Dec-17 04:31N 40°39' W 074°05'0 0.0
2014-Dec-17 03:31N 40°39' W 074°05'0 0.0
2014-Dec-17 02:31N 40°39' W 074°05'0 0.0
2014-Dec-17 01:31N 40°39' W 074°05'0 0.0
2014-Dec-17 00:31N 40°39' W 074°05'0 0.0
2014-Dec-16 23:31N 40°39' W 074°05'0 0.0
2014-Dec-16 22:31N 40°39' W 074°05'0 0.0
2014-Dec-16 21:28N 40°39' W 074°05'0 0.0
2014-Dec-16 20:31N 40°39' W 074°05'0 0.0
2014-Dec-16 19:28N 40°39' W 074°05'0 0.0
2014-Dec-16 18:31N 40°39' W 074°05'0 0.0
2014-Dec-16 17:31N 40°39' W 074°05'0 0.0
2014-Dec-16 16:31N 40°39' W 074°05'0 0.0
2014-Dec-16 15:31N 40°39' W 074°05'0 0.0
2014-Dec-16 14:31N 40°39' W 074°05'0 0.0
2014-Dec-16 13:31N 40°39' W 074°05'0 0.0
2014-Dec-16 12:28N 40°39' W 074°05'0 0.0
2014-Dec-16 11:31N 40°39' W 074°05'0 0.0
2014-Dec-16 10:31N 40°39' W 074°05'0 0.0
2014-Dec-16 09:31N 40°39' W 074°05'0 0.0
2014-Dec-16 08:31N 40°39' W 074°05'0 0.0
2014-Dec-16 07:31N 40°39' W 074°05'0 0.0
2014-Dec-16 06:31N 40°39' W 074°05'0 0.0
2014-Dec-16 05:31N 40°39' W 074°05'0 0.0
2014-Dec-16 04:23N 40°39' W 074°05'0 0.0
2014-Dec-16 03:31N 40°39' W 074°05'0 0.2
2014-Dec-16 02:28N 40°39' W 074°05'2 1.3
2014-Dec-16 01:09N 40°38' W 074°04'0 0.0
2014-Dec-16 00:06N 40°38' W 074°04'0 0.0
2014-Dec-15 23:33N 40°38' W 074°04'0 0.0
2014-Dec-15 22:33N 40°38' W 074°04'0 0.2
2014-Dec-15 21:33N 40°38' W 074°04'0 0.0
2014-Dec-15 20:33N 40°38' W 074°04'0 0.0
2014-Dec-15 19:33N 40°38' W 074°04'0 0.0
2014-Dec-15 18:33N 40°38' W 074°04'0 0.0
2014-Dec-15 17:33N 40°38' W 074°04'0 0.2
2014-Dec-15 16:33N 40°38' W 074°04'0 0.1
2014-Dec-15 15:33N 40°38' W 074°04'0 0.0
2014-Dec-15 14:33N 40°38' W 074°04'0 0.0
2014-Dec-15 13:33N 40°38' W 074°04'0 0.0
2014-Dec-15 12:33N 40°38' W 074°04'0 0.0
2014-Dec-15 11:33N 40°38' W 074°04'0 0.0
2014-Dec-15 10:33N 40°38' W 074°04'0 0.2
2014-Dec-15 09:33N 40°38' W 074°04'0 0.0
2014-Dec-15 08:33N 40°38' W 074°04'0 0.0
2014-Dec-15 07:33N 40°38' W 074°04'0 0.0
2014-Dec-15 06:33N 40°38' W 074°04'0 0.0
2014-Dec-15 05:33N 40°38' W 074°04'0 0.2
2014-Dec-15 04:33N 40°38' W 074°04'0 0.1
2014-Dec-15 03:33N 40°38' W 074°04'0 0.0
2014-Dec-15 02:33N 40°38' W 074°04'0 0.0
2014-Dec-15 01:33N 40°38' W 074°04'0 0.0
2014-Dec-15 00:33N 40°38' W 074°04'0 0.0
2014-Dec-14 23:33N 40°38' W 074°04'0 0.0
2014-Dec-14 22:33N 40°38' W 074°04'0 0.0
2014-Dec-14 21:30N 40°38' W 074°04'0 0.1
2014-Dec-14 20:33N 40°38' W 074°04'0 0.2
2014-Dec-14 19:33N 40°38' W 074°04'0 0.0
2014-Dec-14 18:33N 40°38' W 074°04'0 0.1
2014-Dec-14 17:30N 40°38' W 074°04'0 0.0
2014-Dec-14 16:33N 40°38' W 074°04'0 0.1
2014-Dec-14 15:33N 40°38' W 074°04'0 0.1
2014-Dec-14 14:33N 40°38' W 074°04'0 0.0
2014-Dec-14 13:33N 40°38' W 074°04'0 0.0
2014-Dec-14 12:33N 40°38' W 074°04'0 0.0
2014-Dec-14 11:30N 40°38' W 074°04'0 0.0
2014-Dec-14 10:30N 40°38' W 074°04'0 0.0
2014-Dec-14 09:33N 40°38' W 074°04'0 0.2
2014-Dec-14 08:33N 40°38' W 074°04'0 0.0
2014-Dec-14 07:33N 40°38' W 074°04'0 0.0
2014-Dec-14 06:33N 40°38' W 074°04'0 0.0
2014-Dec-14 05:33N 40°38' W 074°04'0 0.1
2014-Dec-14 04:33N 40°38' W 074°04'0 0.1
2014-Dec-14 03:33N 40°38' W 074°04'0 0.0
2014-Dec-14 02:33N 40°38' W 074°04'0 0.0
2014-Dec-14 01:30N 40°38' W 074°04'0 0.0
2014-Dec-14 00:33N 40°38' W 074°04'0 0.1
2014-Dec-13 23:33N 40°38' W 074°04'0 0.0
2014-Dec-13 22:33N 40°38' W 074°04'0 0.0
2014-Dec-13 21:30N 40°38' W 074°04'0 0.0
2014-Dec-13 20:33N 40°38' W 074°04'0 0.2
2014-Dec-13 19:33N 40°38' W 074°04'0 0.2
2014-Dec-13 18:33N 40°38' W 074°04'2 2.3
2014-Dec-13 17:33N 40°36' W 074°02'1010.3
2014-Dec-13 16:33N 40°29' W 073°53'4610.6
2014-Dec-13 12:14N 40°30' W 072°53'812.3
2014-Dec-13 11:33N 40°31' W 072°42'5 4.8
2014-Dec-13 10:33N 40°31' W 072°36'1313.0
2014-Dec-13 09:33N 40°31' W 072°18'1313.1
2014-Dec-13 08:33N 40°31' W 072°01'1313.0
2014-Dec-13 07:33N 40°32' W 071°44'1313.0
2014-Dec-13 06:33N 40°32' W 071°27'1313.0
2014-Dec-13 05:33N 40°32' W 071°10'3213.3
2014-Dec-13 03:09N 40°33' W 070°28'  

Dump ship's entire track history